Wind_Speed
16 22 25 26 27 28 26 25 27 27 27 28 27 26 25 24 23 22 22 22 22 22 21 19 17 17 18 18 17 17 16 14 13 11 10 10 10 11 12 12 12 10 9 8 8 8 8 8 8 8 7 7 5 3 3 3 2 2 3 4 5 4 5 4 3 3 2 4 5 6 6 7 7 8 9 10 11 13 14 15 15 16 15 14 13
14 18 22 25 25 28 26 25 27 27 27 29 28 27 26 25 24 23 23 23 23 23 22 20 20 20 20 19 18 18 17 15 14 12 11 10 11 12 12 13 12 11 9 8 8 9 9 10 9 8 7 8 6 4 4 4 3 3 3 4 4 5 5 4 4 4 2 1 3 5 6 6 7 8 9 10 11 13 13 14 15 16 15 14 13
12 14 19 23 24 26 26 25 28 29 29 30 29 28 27 26 25 24 24 25 24 23 22 20 21 21 18 17 18 17 17 16 14 12 11 11 11 11 12 13 13 11 10 9 9 9 10 10 9 7 7 8 8 6 5 5 4 3 3 3 3 5 4 2 4 5 3 2 3 4 3 5 6 6 8 10 11 12 13 13 14 15 14 14 14
12 12 15 21 23 25 25 25 27 29 30 30 30 29 27 27 26 25 26 25 24 23 21 20 21 20 17 16 16 16 16 17 15 13 13 12 11 11 11 12 13 11 10 10 10 9 9 9 8 7 7 7 8 7 6 5 4 2 1 2 3 5 5 3 3 5 4 2 3 1 1 3 2 4 11 12 8 9 11 12 13 14 14 13 14
12 12 14 18 22 24 26 27 27 28 29 31 31 31 29 29 28 27 26 25 25 23 21 20 21 20 18 17 17 16 16 17 17 15 15 14 13 12 11 11 12 12 11 10 10 9 9 9 8 7 6 7 7 7 6 6 4 2 1 1 2 5 5 4 3 3 3 2 3 1 1 2 2 4 9 9 8 9 9 10 12 13 13 13 13
11 12 14 18 22 24 26 27 27 28 30 32 33 32 31 30 30 28 27 26 25 22 21 22 21 20 19 19 19 17 16 18 19 17 16 15 13 12 11 11 11 12 11 11 10 9 9 9 8 7 6 6 7 7 7 6 5 3 2 1 1 3 4 3 2 3 2 3 5 3 2 1 3 4 3 4 9 10 9 9 9 9 9 9 10
10 12 14 17 21 23 24 27 28 29 31 32 32 32 32 31 31 30 28 27 25 23 22 23 21 20 20 20 20 19 18 18 18 17 15 13 12 11 11 11 10 10 11 11 11 9 9 8 8 8 7 6 7 8 6 5 5 4 3 2 1 2 3 2 2 3 3 3 5 4 4 3 3 4 1 1 6 7 10 13 9 7 7 7 7
10 11 13 17 22 24 25 27 29 30 31 30 30 30 31 32 32 31 29 27 26 24 23 23 21 20 20 20 20 20 19 18 17 16 14 12 12 11 10 11 10 10 11 11 10 9 9 8 8 8 7 6 7 7 5 5 5 4 4 4 2 1 2 2 2 3 4 5 5 4 5 5 5 5 2 1 1 2 8 11 12 11 7 6 7
8 11 14 17 23 26 28 29 29 30 31 31 31 31 32 32 32 31 30 28 27 25 24 24 23 21 20 20 20 19 18 17 16 16 15 14 12 12 11 11 11 11 10 10 9 8 8 8 7 8 7 7 7 6 5 5 5 5 4 4 3 3 3 3 2 2 3 5 6 6 7 6 7 5 3 4 2 0 3 5 10 13 8 6 7
5 9 15 21 25 27 29 30 29 29 31 32 31 31 32 33 32 31 31 29 28 27 26 25 25 22 20 20 20 19 19 18 17 17 16 16 14 13 12 12 11 11 11 10 9 8 7 7 8 8 7 7 7 6 6 6 6 5 4 4 5 6 5 4 4 2 2 4 6 7 8 8 7 4 5 8 5 2 2 4 8 10 7 7 8
4 6 13 21 25 27 28 29 29 29 30 30 30 31 32 33 33 32 31 29 27 27 27 26 26 24 22 20 20 20 20 19 19 19 18 17 16 15 14 12 12 12 11 10 9 9 8 8 8 8 7 7 8 7 7 7 6 6 5 5 6 7 7 6 5 4 3 4 5 6 7 8 7 5 9 10 6 3 3 5 9 9 6 6 8
5 4 9 16 20 22 25 27 28 28 29 29 30 31 32 33 33 32 31 30 27 26 28 27 26 25 22 21 20 20 21 21 20 19 19 18 17 16 15 14 13 13 12 11 10 10 10 9 9 9 9 9 8 8 7 7 7 7 7 7 7 7 7 7 7 6 5 5 5 6 6 7 7 8 9 8 7 6 4 5 7 7 5 8 10
6 5 6 10 14 19 23 24 26 28 29 30 30 31 32 33 33 33 32 30 28 26 28 28 27 25 22 20 19 20 22 22 20 19 19 18 17 17 17 16 15 14 14 13 12 11 11 10 9 9 10 10 9 8 8 8 7 8 8 7 6 6 6 7 7 7 7 7 7 6 6 7 7 8 9 7 6 5 3 3 5 5 5 7 9
4 4 6 8 13 19 23 25 26 28 30 31 31 32 32 32 33 33 32 31 29 27 28 29 28 25 22 20 19 20 21 21 19 19 19 18 16 17 18 18 17 16 15 13 12 12 12 11 10 9 9 10 10 9 9 9 9 8 7 7 6 6 6 7 7 7 7 7 7 7 7 7 7 7 9 7 4 3 2 3 5 6 6 6 8
4 4 1 7 15 20 23 25 27 28 30 31 31 32 32 33 34 34 32 31 30 27 28 30 29 26 22 20 19 20 21 19 18 18 18 17 16 15 16 17 18 17 15 13 12 12 12 12 11 10 9 10 10 9 9 9 9 9 8 7 6 6 6 6 6 6 7 6 6 7 8 8 7 6 7 6 4 3 3 4 5 5 5 6 7
6 5 3 3 14 19 21 25 27 28 29 30 31 32 33 33 33 33 32 32 31 29 28 29 29 26 23 22 21 20 20 19 18 18 18 17 16 15 14 16 17 16 15 14 12 12 12 12 11 10 10 10 9 9 9 9 10 10 9 8 7 7 7 6 5 6 6 6 6 7 8 9 7 5 5 5 4 4 4 4 4 4 3 3 5
4 3 1 3 9 17 21 24 26 27 29 31 32 34 34 34 34 33 32 32 32 31 30 29 29 27 25 24 23 21 20 19 18 18 17 17 17 16 14 15 16 15 14 14 13 13 12 12 12 11 10 11 10 9 9 9 10 10 10 9 8 8 8 7 7 8 7 6 7 7 7 9 8 5 5 5 6 6 5 4 4 3 2 1 1
5 6 6 4 7 14 18 21 24 27 29 32 33 34 35 35 34 34 32 32 33 32 32 31 30 29 28 26 25 23 22 20 18 17 17 17 18 17 16 16 16 15 14 14 14 14 13 13 13 12 11 12 11 10 9 10 11 11 11 10 9 9 9 9 9 9 8 7 7 7 7 7 7 6 5 5 5 5 4 4 4 4 3 1 1
6 6 6 6 8 13 16 20 24 26 26 28 29 31 33 34 35 36 35 34 33 32 32 32 31 31 30 28 26 25 23 22 19 16 16 17 18 19 18 18 17 16 16 15 15 15 15 15 15 14 13 13 13 12 11 10 11 12 11 11 10 10 10 10 10 10 9 9 8 8 7 7 7 6 5 5 6 4 4 4 4 5 5 5 4
8 7 6 5 7 9 13 18 21 21 20 21 21 22 24 26 27 28 26 25 25 26 27 28 28 28 28 27 26 25 24 24 22 19 17 17 18 18 19 18 17 17 17 17 16 16 17 16 16 15 15 15 14 13 12 11 11 12 12 12 10 10 11 11 11 10 10 10 10 9 8 6 6 7 6 6 6 6 5 6 6 7 7 8 9
6 5 4 4 4 3 6 11 13 14 15 15 13 12 13 15 14 12 12 15 20 23 24 23 23 24 25 25 25 24 24 24 24 22 19 18 18 17 18 18 17 17 18 18 18 17 17 17 17 17 17 16 15 14 13 13 12 12 12 12 11 10 11 11 11 11 11 10 10 10 9 7 6 6 7 7 8 8 8 8 8 9 9 9 10
4 4 3 2 2 2 1 6 8 10 12 12 11 10 10 13 15 15 17 21 26 27 25 22 23 24 25 25 24 23 23 23 23 22 20 19 18 18 17 17 18 18 18 18 19 18 18 18 18 19 18 17 16 15 14 14 14 13 12 12 12 11 11 11 11 11 11 10 10 11 10 9 7 7 8 8 9 10 10 11 10 10 10 9 10
5 5 4 5 7 7 6 2 4 9 12 13 15 13 11 14 19 22 23 24 28 28 24 23 25 26 26 26 25 24 24 23 23 23 22 20 20 19 19 19 19 18 18 18 19 19 19 19 19 19 19 19 18 17 16 16 16 15 14 13 13 12 12 12 12 13 11 10 10 11 12 11 10 10 10 9 9 10 10 10 11 10 11 10 10
6 5 6 8 8 7 7 6 3 9 14 17 18 17 17 16 19 21 22 24 26 25 22 23 27 27 26 26 26 25 25 25 24 23 23 22 21 21 21 21 20 20 20 20 20 19 20 20 20 19 20 20 19 18 17 17 17 17 16 15 14 14 14 13 14 14 13 12 12 12 12 12 12 12 13 12 11 11 10 11 11 11 11 11 11
7 7 7 8 8 7 8 7 6 10 16 19 19 20 24 21 20 19 20 22 24 24 22 23 27 29 27 26 25 24 25 25 25 24 23 22 21 21 21 21 22 22 23 22 21 20 20 21 21 21 20 21 20 19 19 19 18 18 18 17 16 16 15 15 15 15 14 14 14 14 14 13 13 13 14 15 14 13 12 12 12 12 12 12 12
9 8 8 7 8 9 10 12 11 12 15 18 18 18 21 19 17 17 20 22 22 22 21 21 24 27 29 27 25 24 23 23 24 24 23 21 20 20 21 21 21 22 23 24 23 23 22 22 22 22 21 21 21 21 20 20 19 19 19 19 19 18 17 17 16 16 15 15 15 16 16 15 15 15 15 15 14 14 14 14 14 14 13 14 15
8 8 8 7 8 9 12 15 14 12 11 12 13 12 13 16 18 21 24 23 22 22 22 21 21 23 25 26 25 25 23 22 21 21 21 20 20 20 20 19 18 18 20 22 23 24 24 23 23 23 23 22 22 23 23 22 21 20 20 20 21 21 20 19 18 17 17 17 17 17 17 16 16 17 17 16 16 16 16 16 17 17 17 17 17
7 8 8 7 7 8 11 15 15 14 13 12 11 11 12 14 17 21 22 22 23 23 21 19 17 16 18 20 21 21 20 19 19 19 19 19 21 21 20 19 18 16 17 18 19 21 22 23 24 24 24 24 24 25 25 24 23 22 22 22 22 22 22 22 21 20 19 18 18 18 18 18 18 18 19 19 19 18 19 20 21 20 20 20 20
7 7 7 8 7 7 11 13 14 14 15 14 13 13 15 15 15 16 16 17 19 20 19 17 15 13 12 12 15 17 16 15 15 14 15 16 18 19 19 19 19 19 19 18 18 19 20 22 23 24 25 26 27 28 27 26 25 24 24 24 23 23 22 22 22 22 21 20 19 19 19 19 19 20 20 20 21 21 22 23 24 23 22 22 22
6 6 7 7 7 9 12 13 13 13 14 14 14 14 15 16 16 15 14 15 17 19 18 15 14 13 9 8 11 13 13 13 12 11 11 12 14 16 17 17 18 19 20 21 21 20 20 22 23 23 23 25 28 29 29 27 26 26 26 25 25 24 23 23 23 23 23 23 22 21 21 21 21 21 21 22 22 22 22 23 24 24 24 25 25
6 6 7 7 8 10 13 13 12 12 13 14 15 16 16 15 14 13 13 15 17 15 11 7 7 9 9 7 6 8 8 8 8 9 9 9 10 12 14 16 16 17 19 21 21 20 20 21 23 24 24 24 27 29 29 29 28 27 27 27 26 26 24 24 24 24 24 25 24 24 24 24 24 24 23 23 23 22 22 23 23 24 25 26 26
6 6 6 6 7 10 13 13 12 11 11 13 14 16 17 17 16 15 15 14 13 12 10 8 8 9 9 9 8 6 4 4 4 5 5 5 6 7 9 11 13 15 17 18 19 19 18 18 19 22 23 24 25 26 27 29 29 29 29 28 28 27 27 26 26 26 26 26 26 27 27 27 27 27 26 26 25 24 23 23 23 24 24 26 26
6 5 5 6 7 10 13 13 13 12 12 13 14 15 15 16 17 16 16 16 15 14 14 13 12 13 12 11 11 9 7 7 5 3 3 4 5 4 4 6 8 10 12 14 16 16 16 16 16 17 19 22 24 25 25 27 28 29 29 28 28 28 28 28 28 28 28 28 28 28 28 28 28 27 27 27 27 26 26 25 25 25 25 26 26
7 6 6 8 11 12 12 13 14 15 16 16 17 17 17 17 18 18 19 19 17 15 15 14 14 14 14 13 11 10 9 8 7 5 3 2 3 3 2 1 4 6 7 8 10 11 12 12 13 13 13 15 17 19 22 24 25 27 28 27 27 27 28 29 29 29 29 29 29 29 29 29 29 28 28 28 28 28 28 28 28 28 28 27 27
7 6 7 11 14 14 13 14 16 17 17 17 17 19 20 19 19 20 20 20 18 16 16 16 15 15 14 13 12 12 12 11 9 8 6 4 3 2 2 1 2 3 3 2 3 5 7 8 9 9 9 9 9 10 12 15 18 21 23 24 25 26 27 28 29 29 29 30 30 30 30 31 30 30 30 30 30 30 30 30 30 30 30 30 30
6 8 9 12 15 15 15 14 15 15 15 15 15 17 18 19 20 20 20 19 18 18 18 17 17 16 15 13 12 12 13 12 11 11 10 8 6 5 4 3 5 6 5 4 2 2 3 4 5 6 6 6 5 4 5 7 10 14 17 19 21 22 24 26 27 28 28 28 29 29 31 31 31 31 30 30 31 32 31 31 32 32 33 33 32
11 14 14 15 17 19 18 18 17 16 16 15 14 16 18 19 19 19 18 17 18 18 17 17 17 16 15 14 13 13 13 13 12 11 11 10 9 8 7 7 7 8 7 7 7 6 6 6 5 3 3 3 3 4 4 4 7 10 13 16 18 19 21 22 23 24 24 24 25 26 27 28 30 30 29 29 30 31 31 32 33 34 34 34 34
18 19 19 20 20 21 21 21 20 19 18 17 17 17 19 19 18 18 17 17 17 17 16 15 16 15 14 13 13 13 12 12 12 12 11 10 9 9 9 8 8 8 6 5 6 8 9 9 8 5 4 6 5 4 5 5 4 8 12 16 17 17 18 20 21 21 21 21 22 23 23 24 27 27 28 28 29 30 32 32 33 33 33 33 35
22 23 23 22 21 21 21 21 21 19 17 18 17 17 18 18 17 16 17 17 17 16 15 14 13 13 13 13 12 12 12 12 12 12 11 11 10 10 10 9 8 8 7 5 5 5 7 8 8 5 6 8 8 7 7 6 4 5 11 15 18 17 17 18 18 18 18 18 18 18 19 20 22 23 24 25 26 27 30 32 32 31 31 32 35
23 25 24 23 21 20 19 19 19 17 16 15 15 16 16 16 15 16 17 17 16 14 13 12 12 12 12 12 12 12 12 12 12 12 11 11 10 10 10 10 10 10 10 8 8 7 8 8 7 6 6 8 9 9 9 8 6 6 9 15 18 18 17 17 17 17 17 17 17 17 17 17 18 19 20 21 22 22 25 27 29 29 30 32 33
23 24 24 24 22 21 20 17 15 14 13 13 13 14 15 14 14 16 16 15 13 12 11 11 11 12 12 13 13 13 12 12 12 11 11 11 11 11 11 11 11 11 11 11 11 11 10 10 9 9 8 6 6 7 8 8 7 6 7 12 15 15 15 16 16 16 16 16 17 17 17 17 17 18 19 20 20 20 21 22 25 27 28 29 31
22 22 24 24 23 22 21 18 15 13 12 10 10 12 13 12 13 15 14 11 10 10 10 10 11 12 13 13 13 14 14 13 13 12 12 12 13 13 13 13 13 12 12 12 12 12 12 11 11 11 11 10 8 7 7 9 9 8 8 11 13 13 13 14 15 15 15 15 16 17 17 17 18 18 19 20 21 22 22 22 23 24 25 26 28
21 21 22 23 22 20 19 18 15 14 12 10 10 11 11 11 12 13 11 9 9 9 9 10 11 12 13 13 13 14 15 15 14 14 13 14 14 14 14 15 15 15 15 15 15 15 14 14 13 12 12 12 11 10 10 11 11 10 9 10 12 12 13 13 14 15 15 15 15 16 16 16 16 17 19 20 21 22 23 23 24 23 24 24 25
21 21 21 22 22 20 18 16 13 12 11 10 10 10 10 10 10 9 8 8 8 8 9 10 11 12 13 13 13 14 14 15 15 14 14 15 15 15 16 16 17 17 17 18 18 18 17 17 17 15 13 11 10 10 10 11 12 12 11 11 12 12 12 13 13 13 14 15 17 18 18 17 17 17 18 18 20 21 22 23 24 24 24 24 24
21 20 19 20 20 19 17 15 12 11 10 10 10 10 11 11 9 7 7 8 8 8 9 10 11 12 13 13 13 13 14 14 15 15 16 16 16 17 17 17 18 18 19 19 19 19 20 20 19 19 18 15 13 12 12 13 14 13 12 12 13 14 14 14 14 15 17 19 20 20 20 20 20 20 20 20 21 21 21 22 23 23 24 25 25
21 20 18 18 17 16 15 14 12 11 10 10 10 11 12 12 9 8 7 7 7 9 10 10 11 11 12 13 13 14 15 14 14 15 16 16 17 17 17 18 18 18 19 19 20 20 21 21 22 22 22 20 18 17 16 16 16 16 15 15 17 18 18 18 18 19 21 22 22 22 21 21 22 22 23 23 24 24 24 25 25 24 23 21 21
21 20 18 17 16 15 14 14 12 11 10 10 11 11 12 11 9 8 8 7 8 9 9 10 10 11 12 13 14 15 15 15 15 15 15 15 16 16 17 17 18 19 19 19 20 20 21 21 22 23 24 23 22 21 20 20 20 19 19 20 20 21 21 21 22 22 23 23 24 24 23 23 22 22 23 23 24 25 25 26 26 25 22 20 20
21 20 17 15 15 15 14 13 12 11 10 9 9 9 9 8 8 7 7 6 7 8 8 9 10 11 12 13 14 15 15 15 15 15 15 15 16 16 17 16 16 16 17 18 19 19 19 20 21 22 23 23 23 22 22 22 21 21 22 22 23 23 23 23 24 25 25 25 24 25 25 24 24 24 24 24 24 24 24 24 24 24 21 21 23
20 18 16 15 15 15 15 14 13 10 8 7 6 5 5 6 6 6 5 6 7 7 8 9 10 11 12 13 14 14 15 16 17 17 17 16 16 16 17 16 15 14 14 15 16 17 17 18 18 19 20 22 23 22 21 21 20 20 21 23 24 25 25 26 27 27 27 26 25 25 25 25 25 25 25 25 25 24 24 24 23 22 20 20 22
19 16 14 14 15 15 16 15 12 9 7 6 4 3 3 3 4 4 5 5 6 6 8 9 10 12 13 13 14 14 15 17 18 19 20 19 18 17 17 17 16 15 14 14 15 16 16 16 16 17 17 19 21 22 21 21 21 21 21 22 24 26 27 28 29 29 28 26 24 24 24 24 24 24 24 24 24 25 25 25 24 23 21 19 20
19 16 14 14 16 16 16 14 11 8 6 5 5 4 4 3 4 4 5 5 5 6 7 8 9 11 11 12 13 14 15 16 17 19 21 22 23 22 20 18 17 18 18 18 17 16 14 12 13 15 16 17 18 20 21 21 21 22 22 23 24 25 26 28 29 30 29 27 24 23 23 23 23 23 23 24 24 24 24 24 25 24 22 20 20
Wind_Direction
178 179 180 179 181 181 179 179 181 184 188 189 188 190 191 190 192 190 185 183 184 186 189 193 193 191 190 189 188 190 192 194 195 197 195 193 194 195 194 193 194 197 202 206 208 211 214 216 217 223 229 227 233 243 246 269 300 297 277 300 336 6 23 30 21 353 270 256 274 275 281 282 274 278 282 283 285 288 293 295 298 298 294 294 298
174 176 179 179 179 179 178 177 179 182 186 187 187 189 190 190 191 187 183 185 187 188 191 193 191 187 186 187 189 193 196 196 195 195 195 195 199 201 199 196 195 196 201 207 212 214 215 214 217 224 230 228 229 240 250 261 277 279 276 292 325 354 12 27 12 3 4 350 340 322 322 317 299 294 289 284 282 284 287 289 291 290 289 294 298
176 174 177 178 177 177 174 175 181 184 185 187 189 190 189 190 192 189 185 187 188 191 194 194 191 190 191 192 192 195 198 199 198 194 193 197 200 202 203 200 198 198 201 206 210 213 213 214 218 224 228 227 228 239 248 254 258 267 294 299 319 343 355 11 358 357 357 6 17 355 347 348 330 322 316 302 288 284 283 282 284 284 286 292 295
179 174 176 177 175 176 174 175 181 183 183 186 188 189 188 191 193 191 189 190 190 194 199 199 194 194 198 199 196 195 197 199 200 197 196 201 203 205 206 204 204 203 205 209 210 211 211 213 214 217 220 220 225 237 246 253 247 241 290 303 330 343 347 341 334 356 356 353 26 11 26 19 338 325 331 322 306 293 286 281 281 282 286 289 289
177 175 176 175 174 177 177 177 179 181 183 185 188 188 189 192 194 192 192 193 194 197 201 201 197 194 197 197 193 192 192 193 196 197 199 205 209 210 209 208 206 204 209 212 214 216 216 216 215 214 219 218 224 236 248 252 233 208 213 252 343 351 351 336 312 351 3 10 28 23 12 16 264 310 335 329 329 319 302 296 290 286 288 288 287
174 175 176 175 175 177 178 178 178 181 185 188 189 189 189 193 195 193 194 195 197 199 199 195 194 194 195 192 188 187 188 192 196 198 200 205 209 210 209 210 207 205 212 216 217 221 225 224 221 221 225 224 228 238 247 245 222 210 224 219 352 351 345 335 313 345 12 15 15 10 2 329 272 318 344 324 333 338 340 336 318 302 295 288 289
171 173 175 175 175 176 177 179 181 183 186 188 189 188 189 192 194 194 194 195 197 198 194 191 191 196 200 198 195 194 193 196 203 205 204 204 205 206 207 208 208 208 213 216 218 223 227 227 226 228 233 231 231 238 243 233 220 229 242 239 310 335 331 336 336 355 18 16 16 21 8 1 334 337 328 308 333 339 354 6 8 341 306 290 291
172 173 173 175 176 176 178 180 183 185 186 186 186 187 189 192 193 194 195 196 198 199 196 195 196 198 204 205 202 203 204 203 204 208 208 206 206 209 208 207 206 207 210 212 215 222 226 228 230 231 235 235 229 230 234 228 230 243 243 246 268 295 309 321 345 10 19 8 9 13 3 2 355 345 329 333 305 303 338 2 14 3 332 300 291
172 176 175 176 178 178 179 181 183 184 183 184 185 186 189 192 193 194 196 198 201 202 202 202 203 203 207 210 208 209 213 211 206 208 210 210 212 214 213 210 207 206 206 206 210 222 228 230 234 234 234 233 224 219 220 224 235 244 243 248 255 266 288 297 306 351 11 1 358 1 1 356 349 350 359 3 27 10 311 329 358 4 3 340 311
165 179 178 177 179 180 179 180 182 183 183 184 185 186 189 190 192 194 196 199 202 205 206 206 207 208 211 214 214 213 215 215 211 210 211 212 216 218 217 213 210 208 206 206 214 227 232 232 236 236 233 227 221 217 217 224 236 244 248 249 254 271 281 281 282 285 323 345 351 356 358 358 357 350 344 349 358 12 313 299 339 354 357 353 345
157 174 183 180 179 179 178 178 181 182 183 184 184 186 188 190 192 195 198 201 203 205 207 207 208 212 216 219 219 217 218 217 213 212 213 214 217 219 218 215 212 212 212 215 221 230 234 235 235 235 232 225 224 226 225 231 242 247 246 246 258 272 272 265 269 266 275 310 335 348 351 354 355 333 326 333 329 331 321 305 332 344 340 351 1
160 160 182 179 175 176 177 178 180 180 181 183 184 186 188 191 193 196 199 202 203 204 206 206 208 214 220 222 222 223 222 218 214 213 214 217 220 221 221 220 217 218 220 224 228 230 234 237 235 233 230 229 231 234 236 242 250 248 243 249 262 266 260 256 260 260 267 288 314 333 341 340 341 339 337 333 319 320 306 298 332 347 342 351 4
165 152 172 178 175 175 177 179 179 179 181 183 185 187 189 191 194 196 199 202 203 204 205 206 209 216 222 222 222 223 221 218 215 215 217 221 225 225 226 225 221 221 223 227 231 233 237 239 238 233 230 232 236 240 242 246 250 246 245 252 256 258 260 263 263 262 271 287 305 319 329 330 337 346 347 338 322 317 300 312 344 349 338 344 356
147 139 173 184 181 179 178 180 181 182 183 184 186 188 189 192 194 197 200 202 203 204 205 206 210 218 223 222 220 215 213 215 216 217 219 222 227 230 233 231 226 224 227 230 233 237 241 242 240 237 232 232 234 239 243 245 244 242 246 249 252 263 272 273 272 269 271 281 299 314 320 326 337 348 351 350 347 341 335 356 4 354 347 346 349
66 59 145 191 188 184 181 182 183 184 185 185 187 189 190 192 195 198 200 201 203 203 205 207 212 219 222 220 217 212 210 213 216 218 219 224 230 235 240 237 229 228 231 235 237 240 244 245 240 238 234 227 226 231 239 244 243 242 248 250 252 265 267 263 268 273 272 275 291 309 315 322 333 344 356 9 25 23 14 15 21 19 5 348 342
53 43 18 210 193 187 186 186 186 186 186 186 188 189 190 193 196 199 201 201 202 203 204 207 212 217 220 217 216 214 213 215 217 220 224 231 237 242 243 237 230 230 234 237 239 242 246 246 241 237 233 225 222 227 236 243 244 245 250 251 251 256 256 256 265 274 277 279 288 303 311 318 327 331 342 357 357 351 1 3 11 35 42 356 340
92 127 177 220 186 183 189 191 189 188 188 188 191 192 192 194 196 198 201 201 202 203 205 208 211 215 218 218 217 216 215 216 219 223 228 236 241 241 239 233 229 231 235 238 243 244 246 247 241 236 235 232 230 232 236 238 239 243 246 245 245 252 257 261 268 273 274 278 283 294 307 315 321 320 323 341 339 329 339 343 339 356 32 63 343
152 171 190 213 185 176 181 190 194 193 192 192 193 194 195 196 197 197 199 201 202 204 206 209 211 214 216 217 218 220 219 218 220 225 232 239 241 236 233 232 232 233 235 240 244 244 245 246 242 238 240 241 239 238 238 235 235 237 240 240 240 246 257 260 264 268 269 272 277 283 297 309 317 321 320 331 335 329 330 337 337 336 340 335 220
161 175 192 206 196 177 171 184 195 197 197 197 195 196 197 197 199 199 201 203 204 205 207 210 212 214 216 218 220 223 223 221 221 225 231 236 236 233 233 234 235 236 236 238 243 243 243 243 241 241 243 244 242 240 238 237 235 235 235 236 237 243 253 256 255 259 261 267 273 275 285 298 307 315 320 322 324 325 321 323 334 332 326 315 290
167 182 196 202 201 186 175 183 191 193 195 197 196 196 199 201 201 199 197 196 197 201 205 209 211 213 216 218 221 225 225 221 219 221 224 228 230 232 235 236 237 240 238 237 241 244 244 242 242 243 243 243 243 240 238 238 239 239 237 236 236 241 250 252 250 252 255 262 267 267 273 287 296 301 306 310 307 307 304 303 312 320 321 313 299
157 179 204 214 215 203 191 193 190 182 183 187 185 183 190 197 193 184 185 188 193 200 204 206 210 213 216 219 222 225 225 223 222 224 226 226 228 232 235 236 239 242 241 239 241 245 246 245 245 246 245 242 242 240 238 238 240 243 244 242 240 241 246 250 250 249 249 254 260 260 261 270 285 290 294 299 300 298 294 291 296 303 311 319 312
147 159 166 163 108 67 168 206 191 171 169 169 153 141 155 166 166 170 187 202 208 209 207 207 211 213 215 218 220 222 223 224 226 230 232 232 232 235 237 238 240 244 244 241 241 245 247 248 248 248 247 244 243 243 240 240 242 243 245 246 246 246 246 248 249 248 246 247 252 254 253 255 266 277 280 286 292 293 289 286 289 292 297 310 318
124 134 117 97 79 65 63 88 155 152 151 144 135 140 152 150 160 175 186 200 213 215 211 211 215 215 214 215 218 221 222 223 226 229 232 233 235 238 240 241 242 244 245 244 245 248 249 250 250 249 248 245 245 247 246 246 247 246 246 247 248 249 250 250 248 248 250 252 252 251 249 250 256 264 268 272 280 285 285 284 288 291 290 294 309
88 89 89 89 80 72 73 61 86 132 131 128 136 166 183 161 154 171 185 197 208 209 208 214 217 215 213 213 216 219 220 221 224 228 230 232 234 237 240 243 243 244 245 247 250 252 250 250 250 249 248 246 246 248 249 250 250 250 250 252 252 252 254 255 253 253 256 258 260 257 253 253 255 258 261 264 269 273 274 279 287 291 286 284 293
79 74 76 86 79 69 73 66 71 111 124 130 142 174 193 176 148 155 182 198 204 204 206 213 217 215 212 212 213 215 218 220 221 225 228 230 231 235 239 242 244 245 247 248 249 251 251 251 251 251 250 247 247 248 250 251 252 251 252 256 258 256 256 258 259 262 262 260 262 265 266 265 264 262 261 262 268 270 268 273 282 286 284 284 289
87 81 73 80 81 69 65 65 73 100 124 142 153 171 187 177 153 164 191 199 201 204 205 208 214 216 214 212 212 214 216 219 222 224 225 227 229 232 236 241 245 248 249 249 248 249 250 250 252 253 252 249 246 247 249 252 254 254 253 255 259 260 260 260 261 265 268 266 265 268 272 273 272 270 267 266 269 272 272 274 278 281 283 287 289
90 88 80 74 71 66 66 69 75 89 112 136 151 156 163 165 171 189 201 200 201 208 210 208 212 215 214 213 215 218 219 220 224 226 226 227 228 230 233 236 241 246 249 249 249 250 251 250 251 252 251 250 247 246 248 251 253 254 254 254 257 260 261 261 261 264 267 268 269 271 273 273 273 273 272 272 274 276 277 277 278 279 281 283 284
83 88 88 82 68 63 69 75 81 88 96 113 126 124 133 159 182 192 197 201 207 214 214 209 209 212 214 215 216 220 223 224 227 230 231 232 231 232 234 235 238 241 245 247 248 250 252 252 253 253 252 251 249 248 248 249 251 253 253 254 256 259 260 261 261 263 265 267 269 271 273 274 274 274 273 274 275 276 279 280 279 279 279 280 281
88 88 88 87 82 77 77 78 84 90 94 102 112 117 130 154 177 182 183 192 205 214 215 209 210 219 227 231 227 221 218 221 225 229 232 234 234 235 238 240 241 243 246 247 247 249 251 251 253 254 253 251 250 250 251 251 252 252 252 254 256 257 258 259 260 262 263 265 267 270 273 276 278 278 277 277 277 277 280 281 282 282 283 284 284
90 92 93 95 94 91 88 84 85 88 91 94 98 107 124 145 164 167 161 164 179 196 204 199 198 207 218 242 248 238 227 224 227 231 233 235 235 237 241 245 246 246 246 246 246 249 252 252 252 253 254 253 250 251 253 254 255 255 255 255 256 257 258 258 260 262 262 263 265 267 271 274 277 279 278 278 279 280 281 281 282 284 286 287 286
92 97 99 100 101 99 97 94 89 87 90 91 93 99 108 116 126 130 132 147 163 171 171 157 156 175 182 189 223 240 236 227 227 232 234 236 238 240 242 244 245 245 245 244 243 247 252 255 254 252 254 253 251 252 254 255 256 256 256 256 258 260 260 259 261 263 264 265 265 267 270 273 274 274 274 274 275 277 279 281 282 284 286 287 284
104 102 99 99 99 98 99 101 99 95 96 97 97 102 104 102 101 103 112 132 147 141 133 132 133 141 147 147 159 181 181 163 177 197 200 205 222 236 242 244 243 242 241 242 242 244 249 254 253 250 251 252 252 253 254 256 256 256 255 256 258 260 261 261 263 265 267 268 268 269 273 275 276 275 274 273 273 273 275 277 280 283 285 286 286
109 103 97 92 92 99 104 102 101 103 107 109 107 106 104 102 105 110 113 120 124 123 125 130 126 122 119 118 126 133 123 110 109 125 146 158 168 189 228 254 256 246 239 240 242 243 246 250 251 249 249 250 253 254 255 256 256 256 256 256 258 259 260 261 264 266 268 270 271 273 275 277 279 279 279 278 277 276 277 277 279 280 281 283 284
115 113 102 90 89 102 112 107 104 109 111 109 109 107 104 101 104 108 109 111 113 110 105 100 96 95 96 98 101 99 91 81 71 65 65 78 101 120 143 230 276 258 243 243 246 245 246 246 247 248 247 247 251 254 255 256 256 257 258 259 259 260 260 261 263 264 267 270 272 274 276 279 282 283 283 283 282 282 282 282 281 281 281 281 282
122 119 106 97 95 102 111 109 110 114 112 107 105 105 103 101 101 99 96 97 98 92 87 83 78 74 75 77 76 73 71 65 57 51 51 47 33 41 97 102 319 284 247 247 257 253 253 249 247 249 249 247 249 254 257 258 256 256 257 259 260 261 261 261 262 263 265 269 272 273 275 278 281 283 284 284 284 284 284 284 284 283 283 283 283
120 109 96 94 97 103 110 112 113 118 119 114 109 106 105 102 101 97 91 87 85 78 74 73 68 63 61 61 62 64 62 57 53 50 49 47 28 11 22 16 338 312 287 286 304 308 297 277 257 254 257 253 251 258 269 272 269 262 258 258 259 260 261 262 263 264 266 270 273 274 274 276 278 280 283 284 285 284 282 282 283 283 284 284 283
104 98 91 92 97 102 106 106 104 109 119 123 114 107 103 100 96 92 87 81 75 68 65 62 58 56 56 55 56 59 55 49 47 45 41 37 27 15 16 13 352 333 314 295 286 287 295 297 291 285 291 287 262 248 260 284 296 292 280 270 265 264 265 266 267 269 271 273 275 276 277 278 278 279 282 284 285 284 281 280 280 281 282 282 282
103 99 94 93 96 98 98 97 95 96 107 118 116 107 100 92 86 83 80 73 66 59 56 54 50 50 52 52 52 52 48 40 35 32 28 23 21 18 14 7 348 337 336 318 296 284 280 284 286 294 329 329 303 269 257 255 280 307 305 296 285 276 274 274 274 275 276 277 278 279 280 281 281 282 283 284 286 285 281 280 279 279 279 278 280
106 104 99 96 98 98 95 93 92 92 100 111 113 107 97 86 78 75 69 61 55 51 48 47 46 46 46 46 45 41 38 33 27 24 21 15 14 13 10 6 356 346 344 338 322 304 293 293 292 302 335 336 326 313 291 273 281 318 316 310 301 290 284 284 284 285 284 284 284 285 285 285 285 287 288 288 289 288 285 283 281 279 276 276 279
107 107 107 105 104 101 94 88 88 94 102 110 111 105 94 83 75 70 61 52 46 42 39 38 37 38 38 38 39 35 32 31 27 25 24 20 15 10 6 5 6 4 360 354 346 335 326 326 329 339 346 340 337 334 320 306 314 324 313 306 299 294 294 295 294 294 294 294 295 293 292 293 292 293 293 291 291 291 289 288 285 278 274 276 280
111 112 111 108 104 100 96 92 94 99 101 105 107 99 89 81 73 64 55 48 41 34 33 34 32 34 35 36 36 34 31 32 29 26 27 27 24 20 15 10 6 5 5 5 2 354 345 342 345 351 358 356 351 348 340 334 340 347 333 315 304 301 306 305 301 300 301 301 303 302 301 301 299 297 297 294 292 291 290 289 285 281 280 282 282
110 111 111 108 102 100 98 97 99 103 101 103 104 91 80 74 67 57 49 45 41 37 37 38 36 36 35 34 35 34 34 36 34 32 33 35 34 33 31 28 24 22 23 25 24 20 15 13 14 17 20 22 25 30 29 21 20 24 9 338 321 319 323 318 310 309 309 308 309 309 308 305 302 300 298 295 294 293 291 289 288 287 287 287 284
111 110 113 111 103 98 96 94 96 98 97 99 97 84 72 65 58 51 45 42 40 38 40 40 39 38 36 34 35 34 34 35 33 31 32 32 31 33 33 31 28 27 27 28 27 26 24 22 25 30 32 31 33 34 29 23 24 24 7 339 326 326 328 324 321 322 324 325 324 323 320 315 310 306 302 299 296 294 292 290 289 288 288 288 287
115 114 117 114 107 101 96 92 90 88 86 85 85 81 72 61 50 42 44 46 40 37 37 37 36 36 33 34 34 31 28 27 26 24 24 22 20 20 22 22 20 20 20 18 16 15 13 11 11 13 13 15 16 10 2 3 10 13 3 343 333 332 331 328 328 331 334 333 331 328 324 320 316 312 308 304 300 297 296 293 290 286 284 284 285
118 119 119 116 111 108 102 95 89 86 83 78 79 81 72 58 46 40 45 48 43 38 35 33 33 32 29 29 30 27 22 20 19 18 16 15 12 10 10 10 9 10 11 9 7 4 3 2 0 358 356 354 353 349 348 352 358 1 356 345 339 339 338 332 327 325 324 323 321 318 315 311 309 307 306 304 300 297 298 298 296 293 287 283 281
121 121 122 119 115 111 107 103 98 95 93 86 82 82 74 66 60 55 50 45 41 38 34 30 27 24 22 21 22 20 15 11 11 11 11 11 9 6 6 5 5 6 6 3 1 359 357 356 354 351 348 345 343 342 344 347 350 350 347 342 339 339 337 331 324 319 318 317 317 316 314 311 309 307 306 304 301 298 297 298 300 301 299 295 292
128 128 128 125 120 115 113 111 107 103 101 95 88 83 77 71 64 56 46 37 33 32 30 27 22 16 13 12 13 13 10 8 9 9 7 9 10 8 6 5 5 5 3 0 359 356 355 353 349 345 343 341 338 338 340 344 344 342 339 337 336 337 336 332 328 322 318 316 315 314 315 315 314 312 310 309 306 304 303 303 304 307 308 307 305
135 137 134 128 125 125 124 120 114 111 109 102 92 81 70 59 51 44 36 30 30 28 23 21 17 11 7 7 7 7 8 8 10 9 7 7 8 7 5 4 5 4 359 355 353 351 350 348 343 340 339 337 336 338 340 342 342 338 335 334 334 334 334 332 330 327 321 316 312 311 313 316 318 319 318 317 316 315 314 312 311 312 312 309 305
143 142 137 132 132 135 134 128 124 124 123 113 97 74 42 26 26 23 18 25 31 25 16 11 8 5 4 2 0 0 1 2 1 360 359 358 357 356 354 351 354 357 355 350 345 342 341 339 336 335 334 332 332 335 338 337 335 332 331 331 331 330 329 327 327 327 324 319 315 313 314 317 320 322 322 321 321 319 318 315 313 312 310 305 303
150 146 143 140 139 141 139 133 130 129 124 113 94 65 31 18 26 28 25 28 30 22 13 7 1 357 357 357 356 354 354 354 353 351 349 345 343 343 344 342 341 341 340 340 337 334 332 330 328 329 330 327 327 330 331 329 325 322 322 323 323 323 323 323 323 323 323 321 318 316 316 317 318 319 318 318 318 317 314 313 312 311 308 303 299
156 154 150 145 144 145 143 136 132 129 122 110 97 86 76 58 45 39 33 30 29 24 17 9 2 357 355 354 353 350 349 349 348 346 344 342 339 337 338 340 340 338 337 337 336 335 335 330 322 321 321 320 321 324 324 324 323 320 317 317 317 318 318 320 321 321 319 317 316 315 314 314 315 314 312 313 314 312 310 310 311 311 310 306 300
Height
815 817 819 821 823 825 828 830 831 834 835 838 839 841 843 844 846 847 848 850 851 852 853 855 855 856 858 859 860 860 862 863 863 864 865 866 867 867 868 869 870 870 871 872 873 873 874 874 875 875 875 876 876 876 876 876 876 876 876 876 875 875 874 874 874 874 874 874 874 874 874 874 874 873 873 873 872 872 872 872 871 871 870 870 870
814 817 818 820 822 825 827 829 831 833 835 837 839 841 843 844 845 847 848 849 850 852 853 854 855 856 857 858 859 860 861 862 863 864 865 866 867 867 868 869 870 870 871 872 873 873 874 874 875 875 875 876 876 876 876 876 876 876 876 876 876 875 875 875 875 875 874 875 874 874 874 874 873 873 873 873 872 872 872 871 871 871 870 869 870
814 815 818 820 821 824 827 828 830 832 833 836 838 840 842 844 845 846 848 849 850 851 852 853 854 856 857 858 859 860 861 862 863 864 865 866 867 867 868 869 870 870 871 872 873 873 874 874 874 875 875 875 876 876 876 877 877 877 877 877 876 876 876 875 876 875 875 875 875 876 877 876 875 873 872 873 872 872 871 871 871 870 870 869 869
814 815 816 818 821 823 825 827 829 831 833 835 837 839 841 843 845 846 847 849 850 851 852 853 855 856 857 858 859 860 861 862 864 864 865 866 866 867 868 869 870 870 871 872 872 873 873 874 874 875 875 875 876 876 876 877 877 877 877 877 877 876 876 876 876 876 876 876 877 878 878 879 880 876 872 871 871 871 871 870 871 870 869 869 869
812 814 814 816 819 821 823 826 828 830 832 833 835 837 839 842 844 845 847 848 849 851 852 853 855 856 857 858 859 860 861 862 864 864 865 866 866 867 867 868 869 870 871 872 872 873 873 874 874 874 875 875 875 876 876 877 877 877 877 877 877 877 877 876 876 876 877 877 877 879 880 882 882 878 875 873 870 871 871 870 870 870 869 869 869
809 811 812 814 817 820 822 825 827 829 830 832 834 835 838 840 843 845 846 848 850 851 852 853 854 856 856 857 858 859 860 861 862 863 864 865 866 866 867 868 869 870 871 872 872 873 873 874 874 874 875 875 875 876 876 877 877 877 877 878 878 877 877 877 877 877 877 877 877 878 879 881 880 877 878 877 872 870 870 870 870 869 868 868 868
807 809 811 813 816 818 821 823 825 827 829 831 834 835 837 839 842 844 845 847 849 851 852 853 854 855 856 857 857 858 859 860 861 862 863 864 865 866 867 868 869 870 870 871 872 873 873 874 874 874 875 875 875 876 876 877 877 877 878 878 878 878 878 878 877 877 877 878 878 878 878 878 878 877 878 879 878 874 871 870 870 869 868 868 868
806 808 809 811 814 816 819 821 823 825 828 831 833 835 837 839 841 843 845 847 849 850 852 852 853 854 855 856 857 858 859 860 861 862 863 864 865 866 867 867 868 869 870 871 872 872 873 874 874 874 875 875 875 875 876 877 877 877 878 878 878 878 878 878 878 878 878 878 878 878 878 878 878 877 877 878 880 879 874 871 870 869 868 868 868
804 806 807 809 812 814 817 819 823 825 827 830 832 834 836 838 840 842 844 846 848 850 851 852 853 854 855 856 857 858 859 860 861 862 863 864 865 866 867 867 868 869 870 870 871 872 873 873 874 874 874 875 875 875 876 876 877 877 878 878 878 878 879 878 878 878 878 878 878 878 878 878 877 877 877 877 877 879 878 874 871 870 869 868 868
803 804 805 807 810 813 816 819 822 825 827 829 831 834 836 838 840 841 843 845 847 849 850 852 853 854 855 855 856 858 859 860 861 862 863 864 865 866 866 867 868 868 869 870 871 871 872 873 873 874 874 875 875 875 876 876 877 877 878 878 878 879 879 879 878 878 878 878 879 879 878 878 878 877 877 877 876 877 878 875 873 872 871 869 869
802 803 804 806 809 813 816 818 821 824 826 829 831 833 835 837 839 840 842 844 846 848 850 851 853 853 854 855 856 857 858 860 861 862 862 863 864 865 866 867 867 868 869 869 870 871 871 872 873 873 874 875 875 875 876 876 877 877 878 878 878 878 878 878 879 879 879 879 879 879 879 879 879 878 877 877 877 877 877 876 874 873 872 871 870
801 804 806 807 810 813 816 818 820 823 826 828 830 832 834 836 837 839 841 843 845 847 849 851 852 853 854 855 856 857 858 859 860 861 862 863 863 865 866 866 867 868 868 869 869 870 871 872 872 873 873 874 875 875 876 876 876 877 877 878 878 878 878 878 879 879 879 879 879 879 879 879 879 878 877 876 876 876 876 875 874 873 872 871 870
801 804 806 809 810 812 815 817 820 822 824 826 828 830 832 834 836 838 840 842 844 846 848 850 851 853 854 855 856 857 858 859 860 861 862 862 863 864 865 866 867 867 868 868 869 870 870 871 872 872 873 873 874 875 875 876 876 876 877 877 878 878 878 878 878 879 879 879 879 879 879 879 879 878 877 876 876 875 875 875 874 874 873 871 871
802 804 807 809 810 811 813 816 818 820 822 825 827 828 831 832 834 836 838 841 843 845 848 849 851 852 854 855 856 857 857 858 859 860 861 862 863 864 864 865 866 866 867 868 868 869 870 870 871 872 872 873 873 874 875 875 876 876 876 877 877 878 878 878 878 878 879 879 879 879 879 879 879 878 877 876 876 876 875 875 874 874 873 872 871
805 807 808 809 810 810 812 814 816 819 821 823 825 827 829 830 833 835 837 840 842 845 847 848 850 852 853 855 855 856 857 858 859 860 861 862 863 863 864 865 865 866 867 867 868 869 869 870 871 871 871 872 873 873 874 875 875 875 876 876 877 877 877 878 878 878 878 879 879 879 879 879 879 878 878 877 876 876 876 876 875 875 875 874 872
810 810 809 809 809 810 812 813 815 817 819 821 823 825 827 829 831 834 836 838 840 843 845 847 849 851 852 853 854 855 856 857 858 860 861 862 863 863 864 864 865 866 866 867 868 869 869 870 870 871 871 871 872 872 873 874 874 875 875 876 876 877 877 877 878 878 878 878 878 879 878 878 879 878 878 878 877 877 876 876 876 875 877 878 876
812 810 808 808 808 809 810 812 814 816 817 819 820 823 825 827 830 832 835 837 839 841 843 845 847 848 850 851 852 854 855 856 857 859 860 861 862 863 863 864 865 865 866 867 867 868 869 869 870 870 870 871 871 872 872 873 874 874 874 875 875 876 876 876 877 877 877 877 878 878 878 878 878 878 878 878 877 877 877 877 876 875 876 878 878
810 808 806 807 807 808 809 811 813 814 815 817 818 821 823 825 827 830 832 834 836 838 840 842 844 845 847 849 850 852 853 855 857 858 860 861 861 862 863 863 864 865 865 866 867 867 868 868 869 869 870 870 871 871 871 872 872 873 873 874 875 875 875 875 876 876 876 877 877 877 877 877 877 878 878 878 877 877 877 877 877 876 876 876 877
808 806 805 805 806 807 807 809 810 812 815 816 818 821 822 824 825 827 829 831 833 836 837 839 841 842 845 847 849 851 852 854 855 857 858 859 860 861 861 862 863 864 864 865 866 866 867 867 867 868 869 869 870 870 871 871 871 872 872 873 873 874 874 874 875 875 875 876 876 876 876 876 877 877 877 877 877 877 877 877 877 876 877 876 876
806 805 804 804 806 808 807 807 809 812 815 817 819 821 823 825 826 828 830 831 833 835 835 838 840 842 844 846 848 849 850 852 853 854 855 856 857 859 859 861 862 863 863 863 864 865 865 866 866 867 867 868 868 869 870 870 870 871 871 872 872 873 873 873 874 874 874 875 875 875 875 875 876 876 876 876 877 877 877 876 876 876 876 876 876
805 805 804 805 808 809 808 809 810 813 816 818 820 822 824 826 829 833 835 835 833 833 835 839 841 843 844 845 847 848 849 850 851 851 853 853 855 857 858 860 860 862 862 862 863 863 864 865 865 866 866 866 867 867 868 869 869 870 870 871 871 872 872 872 873 873 873 874 874 874 875 875 875 875 875 875 876 876 876 876 876 876 875 876 875
805 805 805 807 809 811 811 810 811 813 816 818 820 822 823 826 828 832 834 834 832 832 835 840 841 842 843 843 845 846 847 849 849 851 852 853 854 855 857 858 859 860 861 862 862 862 863 864 864 865 865 866 866 866 867 868 868 869 869 869 870 871 871 871 872 872 872 873 873 873 873 874 874 874 874 874 875 875 875 875 875 875 875 875 874
803 804 805 807 809 811 813 813 814 814 816 818 819 820 823 825 826 828 829 830 830 832 836 839 840 840 841 841 842 844 845 846 848 849 851 852 853 854 855 857 857 859 860 860 861 861 862 863 863 864 864 865 866 866 866 866 867 867 868 868 869 869 870 871 871 871 872 872 872 872 872 872 873 873 873 873 873 873 873 874 874 874 874 873 873
803 804 805 808 809 811 812 814 816 817 817 817 818 818 820 823 825 827 828 829 830 832 836 838 839 839 839 839 840 841 843 844 846 847 849 850 851 852 854 855 856 857 858 859 860 860 861 861 862 862 863 864 864 865 865 865 866 866 867 867 868 868 869 869 870 870 871 871 871 871 871 872 872 872 872 872 872 872 872 872 872 872 872 872 872
805 806 807 809 810 812 813 814 817 819 818 817 817 817 818 821 825 827 829 829 830 832 834 836 838 838 838 838 839 840 841 842 844 845 847 848 850 851 852 853 854 855 856 857 858 859 859 860 860 861 861 862 863 863 864 864 864 865 866 866 866 867 868 868 869 869 870 870 870 870 870 871 871 871 871 871 871 871 871 871 871 871 871 871 871
808 808 810 811 812 814 815 816 817 819 819 817 816 817 818 822 827 829 829 829 830 832 833 834 836 836 836 836 837 838 840 841 843 844 845 847 848 850 851 851 852 853 854 855 856 857 858 858 859 859 860 860 861 862 862 862 863 864 864 865 865 865 866 866 867 868 868 869 869 869 869 870 870 870 870 870 870 870 870 870 869 869 869 869 869
810 811 812 814 814 815 817 818 818 819 818 817 816 818 820 821 823 825 826 827 828 830 831 832 834 835 835 835 836 837 838 840 842 843 844 846 847 848 849 850 851 852 853 854 854 855 856 856 857 857 858 859 859 860 860 861 861 862 863 863 863 864 864 864 865 866 866 867 867 867 868 868 869 869 869 869 869 869 869 868 868 868 868 868 867
813 814 815 816 817 817 818 818 818 819 818 816 816 818 820 820 819 821 824 825 826 828 830 832 834 835 835 834 835 837 838 840 841 842 843 844 845 846 847 848 849 850 851 852 853 854 854 854 855 855 856 857 857 858 859 859 860 860 861 861 861 862 862 862 863 864 864 865 865 866 866 866 867 867 868 868 868 868 868 867 867 867 866 866 866
816 817 817 818 819 819 819 819 819 819 818 817 818 819 820 820 820 821 824 825 826 828 831 832 832 834 835 836 837 837 838 839 840 841 842 843 843 844 846 847 848 848 849 850 851 852 852 852 853 853 854 855 855 856 856 857 858 858 859 859 860 860 860 860 861 861 862 863 863 863 864 864 864 865 865 866 866 866 866 866 865 865 865 865 864
819 819 819 819 820 820 821 820 819 819 819 819 820 820 821 821 822 824 826 826 827 829 829 828 828 829 833 837 840 840 838 838 839 840 841 841 842 843 844 845 846 847 847 848 849 849 850 850 850 851 851 852 853 853 854 855 856 856 857 857 858 858 859 859 859 859 860 860 861 861 861 862 862 862 862 863 863 863 864 863 863 863 864 864 863
821 821 821 820 820 821 821 821 821 820 820 820 820 820 821 822 823 825 825 825 826 827 827 828 828 829 831 835 839 841 840 838 838 839 839 840 841 841 842 843 844 845 845 846 846 847 847 847 848 848 849 849 850 851 852 853 854 854 855 855 856 857 857 857 857 857 858 858 858 859 859 859 860 860 860 860 860 860 861 861 861 861 862 862 861
822 822 822 821 821 821 822 823 823 822 822 822 821 820 821 821 823 825 825 826 826 826 829 832 833 833 834 835 837 839 840 839 838 839 839 839 839 840 841 842 842 843 844 844 844 845 845 845 845 845 846 846 847 848 849 851 851 852 853 854 854 855 855 855 855 855 855 855 856 856 856 856 857 857 857 858 858 858 858 858 858 859 859 859 859
823 823 823 823 822 823 823 824 824 824 824 825 825 824 822 822 824 826 827 828 829 830 833 835 836 836 837 837 837 839 839 838 838 839 839 839 838 838 840 841 842 842 842 842 843 843 843 843 843 843 844 844 845 846 847 848 849 850 851 851 852 852 852 853 853 853 853 853 853 853 853 853 854 854 854 855 855 855 855 855 855 856 856 856 856
824 825 824 824 825 825 825 825 826 827 827 827 828 828 827 826 828 829 830 831 833 834 835 836 837 837 837 838 839 839 839 838 839 839 839 839 839 838 837 839 841 842 842 842 842 841 841 842 842 842 842 842 843 844 845 846 847 848 849 849 849 850 850 850 850 851 851 850 851 851 851 851 851 851 851 852 852 852 852 852 852 852 852 853 853
826 825 825 826 827 827 828 828 828 829 829 829 830 830 830 831 832 833 833 834 836 837 837 837 837 837 837 838 838 839 839 839 840 840 839 839 839 838 837 837 840 842 842 842 842 841 841 841 841 841 841 841 842 843 844 845 846 847 847 847 847 848 848 848 848 848 848 848 848 848 848 848 848 848 848 849 849 849 849 849 849 849 849 849 849
825 826 827 828 828 829 829 830 830 831 831 831 832 832 833 834 835 836 836 837 837 838 838 838 837 837 838 838 838 838 839 839 840 840 839 839 840 839 837 837 840 842 842 842 842 842 842 841 840 840 840 840 841 841 842 843 845 846 846 846 846 846 846 846 846 846 846 846 846 846 846 846 845 845 845 846 846 847 847 847 846 845 845 845 845
826 827 828 829 830 830 831 832 832 833 833 833 834 834 834 836 836 837 838 838 838 838 838 839 839 838 839 839 839 838 839 840 840 840 840 840 840 840 838 837 840 843 843 842 842 842 842 841 840 839 839 839 839 839 840 841 843 845 845 846 845 845 845 844 844 844 845 844 845 844 844 844 843 843 843 843 844 844 844 844 843 842 842 842 841
826 827 827 829 831 832 833 834 834 835 835 835 836 836 836 837 838 838 838 839 839 839 839 840 840 840 840 840 840 839 839 840 840 840 840 840 840 840 839 839 841 843 843 843 842 842 842 842 840 839 838 838 838 838 838 838 839 842 844 846 846 844 844 843 843 843 843 842 842 842 842 842 841 841 841 841 841 842 841 841 840 839 839 838 838
826 827 827 830 832 833 834 835 835 837 838 837 837 837 837 838 839 839 839 839 840 840 840 841 841 841 841 841 840 840 840 840 841 840 840 840 840 840 839 840 841 841 841 842 842 842 842 841 840 838 838 838 837 837 837 837 837 838 840 844 846 845 843 842 841 841 841 840 840 840 840 840 839 839 839 838 839 839 838 838 838 837 836 835 834
827 828 829 831 833 834 835 836 837 839 839 839 839 839 839 841 841 840 840 840 840 841 841 841 841 841 841 841 841 841 841 841 841 841 841 841 841 840 840 840 840 839 839 839 839 839 839 839 838 837 838 839 837 836 836 837 837 837 837 842 846 845 842 841 840 839 838 837 837 837 837 837 837 836 836 835 835 835 835 834 834 834 832 831 832
828 829 830 832 834 835 836 837 839 840 840 840 840 840 841 842 842 841 841 842 842 841 841 841 841 841 841 841 841 841 841 841 841 841 842 842 841 841 840 840 839 839 838 837 837 837 836 836 836 836 837 837 837 836 836 837 837 836 836 840 845 845 842 840 839 838 836 835 834 834 834 834 834 833 833 832 832 832 831 830 830 830 829 829 829
830 831 832 833 835 836 838 839 839 840 840 841 841 841 842 843 842 843 843 843 843 843 842 842 842 842 842 842 842 842 842 842 842 842 842 842 842 841 841 840 839 839 838 837 837 836 836 836 835 836 836 836 836 837 837 837 836 835 836 840 844 844 841 839 837 836 835 833 832 832 832 831 831 831 830 830 829 829 828 827 826 826 826 826 826
831 833 833 834 836 838 839 840 841 841 841 841 842 842 843 843 843 844 844 844 844 843 843 843 843 843 843 843 843 843 843 843 843 843 843 842 842 842 841 840 840 839 838 838 837 837 837 836 836 836 836 836 836 837 837 837 837 837 838 841 843 842 840 838 836 835 833 832 831 830 829 829 828 828 828 827 826 826 825 824 824 824 823 823 823
831 834 834 835 837 839 840 841 842 842 842 842 843 843 844 844 844 845 845 845 844 844 844 844 844 845 845 845 844 844 844 844 843 843 843 842 842 842 841 840 840 840 839 838 838 837 837 837 836 836 835 835 836 837 837 837 836 837 839 841 842 840 838 836 835 833 832 831 829 828 827 827 826 825 825 825 824 823 822 822 821 821 821 821 820
831 834 835 836 837 839 841 842 843 843 844 844 843 844 844 845 845 845 845 845 844 844 844 845 845 845 846 846 845 845 845 844 844 844 843 843 842 842 841 840 840 840 839 839 838 837 837 836 836 836 835 835 836 836 836 836 836 837 839 841 840 838 836 834 833 832 831 829 828 827 826 825 824 823 823 822 821 820 820 819 818 818 818 818 818
832 834 835 837 838 839 841 842 844 845 845 845 845 845 845 845 846 845 845 845 845 845 845 845 845 846 846 846 846 845 845 845 844 844 844 843 843 842 841 841 840 840 839 839 838 837 837 836 835 835 835 835 834 834 835 835 835 836 837 837 836 834 833 832 831 829 828 827 826 825 824 823 822 821 820 819 818 817 817 816 816 816 815 815 816
832 834 836 837 838 839 841 842 844 845 846 846 846 846 846 846 846 846 846 845 845 845 845 845 845 845 845 845 845 845 845 845 845 844 844 843 843 842 841 840 840 840 839 839 838 837 837 836 835 834 833 833 833 833 833 833 834 834 833 833 832 831 830 829 828 827 825 824 823 822 821 820 820 819 818 817 816 815 814 813 813 813 813 813 813
834 835 837 838 839 840 841 843 844 845 846 847 847 847 847 847 846 847 847 846 846 846 845 845 845 845 845 845 844 845 844 844 844 844 843 843 842 841 841 840 840 840 839 839 838 838 837 837 836 834 833 833 832 832 833 833 833 832 831 831 830 828 827 826 825 824 822 822 821 820 819 818 817 816 815 814 813 812 811 811 810 810 811 810 809
835 836 837 838 839 841 842 843 844 845 846 847 847 847 848 847 847 847 847 846 847 846 846 846 846 845 845 845 844 844 843 843 842 842 842 842 842 841 841 840 840 840 839 839 838 837 837 836 836 835 834 833 832 832 832 832 832 832 831 829 828 826 825 824 823 822 820 819 818 817 816 816 814 813 812 811 811 810 809 808 808 808 808 807 805
835 836 837 838 840 841 842 843 844 845 846 846 847 847 848 848 847 847 847 847 847 847 847 846 846 845 845 845 844 844 843 842 841 840 840 840 840 840 840 839 839 839 839 838 838 837 836 836 835 834 834 834 833 832 831 831 830 829 828 828 826 825 823 822 821 820 818 817 816 815 814 814 813 812 811 810 809 808 807 806 805 805 805 805 804
835 835 836 838 840 841 842 843 844 844 845 846 846 847 847 847 847 847 847 847 847 847 847 847 846 846 845 845 844 844 843 842 842 841 840 838 837 837 838 838 838 838 837 837 837 836 836 836 835 834 833 832 832 831 830 829 828 827 826 825 824 823 821 820 819 817 816 815 814 813 813 812 812 811 810 809 808 807 805 804 803 802 802 802 802